Hearne, TX

10:55 PM CDT on June 25, 2017 (GMT -0500)
Hearne

Weather History for KLHB - January, 2014

Change the Weather History Date:

Tuesday, January 28, 2014

  Actual Average (KCLL) Record (KCLL)
Temperature  
Mean Temperature 33 °F -  
Max Temperature 39 °F 60 °F 82 °F (2013)
Min Temperature 27 °F 41 °F 20 °F (1902)
Degree Days  
Heating Degree Days 32    
Moisture  
Dew Point 16 °F    
Average Humidity 53    
Maximum Humidity 73    
Minimum Humidity 28    
Precipitation  
Precipitation 0.01 in - - ()
Sea Level Pressure  
Sea Level Pressure 30.38 in    
Wind  
Wind Speed 12 mph (NNW)    
Max Wind Speed 20 mph    
Max Gust Speed 25 mph    
Visibility 10 miles    
Events Rain , Snow    
Averages and records for this station are not official NWS values.
T = Trace of Precipitation, MM = Missing Value Source: NWS Daily Summary

Daily Weather History Graph

Daily Weather History Graph

Search for Another Location

Airport or City:

Trip Planner

Search our weather history database for the weather conditions in past years. The results will help you decide how hot, cold, wet, or windy it might be!

Date:

Astronomy

Jan. 28, 2014 Rise Set
Actual Time 7:20 AM CST 5:58 PM CST
Civil Twilight 6:54 AM CST 6:24 PM CST
Nautical Twilight 6:25 AM CST 6:53 PM CST
Astronomical Twilight 5:57 AM CST 7:22 PM CST
Moon 5:00 AM CST (1/28) 3:52 PM CST (1/28)
Length of Visible Light 11h 29m
Length of Day
10h 38m
Waning Crescent, 7% of the Moon is Illuminated
Jan 28
Waning Crescent
Jan 30
New
Feb 6
First Quarter
Feb 14
Full
Feb 22
Last Quarter

Hourly Weather History & Observations

Time (CST) Temp. Windchill Dew Point Humidity Pressure Visibility Wind Dir Wind Speed Gust Speed Precip Events Conditions
12:15 AM 32.9 °F 24.1 °F 14.7 °F 47% 30.26 in 10.0 mi NNW 11.5 mph 19.6 mph N/A   Light Drizzle
12:35 AM 32.2 °F 22.7 °F 15.1 °F 49% 30.27 in 10.0 mi NNW 12.7 mph 20.7 mph N/A Snow Light Snow
12:55 AM 31.6 °F 22.6 °F 19.8 °F 62% 30.27 in 10.0 mi NW 11.5 mph - N/A Rain Light Freezing Rain
1:15 AM 31.5 °F 20.9 °F 18.3 °F 58% 30.27 in 10.0 mi NNW 15.0 mph - N/A Rain Light Freezing Rain
1:35 AM 31.1 °F 20.5 °F 18.3 °F 59% 30.27 in 10.0 mi NNW 15.0 mph 20.7 mph N/A Rain Light Freezing Rain
1:55 AM 30.4 °F 20.0 °F 18.5 °F 61% 30.25 in 10.0 mi NNW 13.8 mph 20.7 mph N/A Rain Light Freezing Rain
2:15 AM 29.3 °F 17.0 °F 20.3 °F 69% 30.26 in 7.0 mi NNW 18.4 mph - N/A Rain Light Freezing Rain
2:35 AM 29.3 °F 19.1 °F 19.9 °F 68% 30.26 in 10.0 mi NNW 12.7 mph 19.6 mph N/A Rain Light Freezing Rain
2:55 AM 29.3 °F 18.6 °F 19.2 °F 66% 30.27 in 10.0 mi NNW 13.8 mph - N/A Snow Light Snow
3:15 AM 29.1 °F 18.4 °F 19.0 °F 66% 30.29 in 10.0 mi NW 13.8 mph 21.9 mph N/A Rain Light Freezing Rain
3:35 AM 28.8 °F 17.0 °F 18.0 °F 64% 30.28 in 10.0 mi NNW 16.1 mph 25.3 mph N/A Rain Light Freezing Rain
3:55 AM 28.4 °F 16.2 °F 18.3 °F 66% 30.29 in 10.0 mi NNW 17.3 mph 24.2 mph N/A Rain Light Freezing Rain
4:15 AM 28.4 °F 17.5 °F 17.6 °F 64% 30.30 in 10.0 mi NNW 13.8 mph - N/A   Overcast
4:35 AM 28.4 °F 17.0 °F 16.5 °F 61% 30.29 in 10.0 mi NNW 15.0 mph - N/A Rain Light Freezing Rain
4:55 AM 28.2 °F 17.7 °F 17.2 °F 63% 30.29 in 10.0 mi NNW 12.7 mph - N/A Rain Light Freezing Rain
5:15 AM 27.9 °F 15.9 °F 18.5 °F 68% 30.29 in 10.0 mi NNW 16.1 mph 20.7 mph N/A Rain Light Freezing Rain
5:35 AM 27.5 °F 16.3 °F 19.0 °F 71% 30.31 in 10.0 mi NNW 13.8 mph - N/A   Light Freezing Rain
5:55 AM 28.2 °F 18.3 °F 20.5 °F 73% 30.32 in 7.0 mi NNW 11.5 mph - N/A Rain Light Freezing Rain
6:15 AM 27.9 °F 18.4 °F 19.8 °F 72% 30.33 in 10.0 mi NW 10.4 mph - N/A Rain Light Freezing Rain
6:35 AM 27.9 °F 18.4 °F 19.2 °F 70% 30.34 in 10.0 mi NW 10.4 mph - N/A Snow Snow
6:55 AM 28.0 °F 17.5 °F 18.5 °F 67% 30.34 in 10.0 mi NNW 12.7 mph - 0.01 in Snow Light Snow
7:15 AM 28.0 °F 18.6 °F 18.9 °F 68% 30.35 in 10.0 mi NNW 10.4 mph - N/A   Light Freezing Rain
7:35 AM 28.0 °F 20.0 °F 18.3 °F 67% 30.35 in 10.0 mi NW 8.1 mph - N/A   Overcast
7:55 AM 28.2 °F 19.5 °F 18.7 °F 67% 30.36 in 10.0 mi NW 9.2 mph - N/A   Light Freezing Rain
8:15 AM 28.4 °F 19.7 °F 18.7 °F 67% 30.37 in 10.0 mi NW 9.2 mph - N/A   Overcast
8:35 AM 28.4 °F 19.7 °F 18.1 °F 65% 30.39 in 10.0 mi NW 9.2 mph - N/A   Overcast
8:55 AM 28.9 °F 19.2 °F 17.4 °F 62% 30.40 in 10.0 mi NW 11.5 mph - N/A   Overcast
9:15 AM 29.3 °F 19.1 °F 17.1 °F 60% 30.41 in 10.0 mi NNW 12.7 mph - N/A   Overcast
9:35 AM 29.8 °F 20.3 °F 18.1 °F 62% 30.42 in 10.0 mi NNW 11.5 mph - N/A   Overcast
9:55 AM 30.2 °F 19.8 °F 17.6 °F 60% 30.43 in 10.0 mi NNW 13.8 mph - N/A   Overcast
10:15 AM 30.4 °F 18.7 °F 16.0 °F 55% 30.44 in 10.0 mi NNW 17.3 mph 23.0 mph N/A   Overcast
10:35 AM 30.0 °F 18.3 °F 15.6 °F 55% 30.44 in 10.0 mi NNW 17.3 mph 21.9 mph N/A   Overcast
10:55 AM 29.8 °F 20.3 °F 15.6 °F 56% 30.45 in 10.0 mi North 11.5 mph - N/A   Overcast
11:15 AM 31.3 °F 21.1 °F 15.3 °F 52% 30.45 in 10.0 mi NNW 13.8 mph 17.3 mph N/A   Overcast
11:35 AM 32.0 °F 22.5 °F 15.8 °F 51% 30.45 in 10.0 mi NNW 12.7 mph - N/A   Overcast
11:55 AM 33.1 °F 24.9 °F 15.1 °F 48% 30.44 in 10.0 mi NNW 10.4 mph 16.1 mph N/A   Overcast
12:15 PM 34.2 °F 28.2 °F 14.5 °F 45% 30.43 in 10.0 mi NNW 6.9 mph 10.4 mph N/A   Mostly Cloudy
12:35 PM 35.8 °F 26.5 °F 16.7 °F 46% 30.41 in 10.0 mi NNW 15.0 mph 20.7 mph N/A   Clear
12:55 PM 36.0 °F 26.3 °F 14.4 °F 41% 30.39 in 10.0 mi North 16.1 mph 23.0 mph N/A   Clear
1:15 PM 36.3 °F 26.8 °F 13.3 °F 39% 30.38 in 10.0 mi NNW 16.1 mph 21.9 mph N/A   Clear
1:35 PM 37.0 °F 27.4 °F 13.5 °F 38% 30.36 in 10.0 mi NNW 17.3 mph 24.2 mph N/A   Clear
1:55 PM 37.8 °F 29.0 °F 12.0 °F 35% 30.36 in 10.0 mi NW 15.0 mph 20.7 mph N/A   Clear
2:15 PM 37.9 °F 29.6 °F 10.8 °F 33% 30.36 in 10.0 mi NNW 13.8 mph 23.0 mph N/A   Clear
2:35 PM 38.5 °F 29.6 °F 9.1 °F 30% 30.36 in 10.0 mi NNW 16.1 mph 24.2 mph N/A   Clear
2:55 PM 38.3 °F 28.4 °F 9.0 °F 30% 30.36 in 10.0 mi NNW 19.6 mph 24.2 mph N/A   Clear
3:15 PM 38.5 °F 29.2 °F 9.5 °F 30% 30.36 in 10.0 mi NNW 17.3 mph 23.0 mph N/A   Clear
3:35 PM 38.8 °F 31.2 °F 9.7 °F 30% 30.36 in 10.0 mi North 12.7 mph 21.9 mph N/A   Clear
3:55 PM 39.4 °F 31.8 °F 8.8 °F 28% 30.38 in 10.0 mi North 12.7 mph 18.4 mph N/A   Clear
4:15 PM 39.6 °F 31.3 °F 9.3 °F 29% 30.38 in 10.0 mi North 15.0 mph 19.6 mph N/A   Clear
4:35 PM 38.8 °F 29.7 °F 9.9 °F 30% 30.39 in 10.0 mi NNW 17.3 mph - N/A   Clear
4:55 PM 38.3 °F 28.7 °F 11.7 °F 34% 30.39 in 10.0 mi NNW 18.4 mph - N/A   Clear
5:15 PM 37.8 °F 29.4 °F 10.9 °F 33% 30.39 in 10.0 mi NNW 13.8 mph - N/A   Clear
5:35 PM 35.6 °F 27.5 °F 12.7 °F 39% 30.40 in 10.0 mi NNW 11.5 mph - N/A   Clear
5:55 PM 35.4 °F 29.0 °F 12.7 °F 39% 30.39 in 10.0 mi NNW 8.1 mph - N/A   Clear
6:15 PM 34.7 °F 28.8 °F 13.6 °F 42% 30.40 in 10.0 mi NNW 6.9 mph - N/A   Clear
6:35 PM 34.0 °F 28.0 °F 14.4 °F 45% 30.41 in 10.0 mi NNW 6.9 mph - N/A   Clear
6:55 PM 32.7 °F 27.3 °F 16.0 °F 50% 30.42 in 10.0 mi NW 5.8 mph - N/A   Clear
7:15 PM 33.8 °F 28.6 °F 14.7 °F 46% 30.43 in 10.0 mi NNW 5.8 mph - N/A   Clear
7:35 PM 32.7 °F 26.4 °F 15.8 °F 50% 30.43 in 10.0 mi NNW 6.9 mph - N/A   Clear
7:55 PM 32.0 °F 25.6 °F 16.7 °F 53% 30.43 in 10.0 mi NNW 6.9 mph - N/A   Clear
8:15 PM 32.0 °F 26.4 °F 16.3 °F 52% 30.44 in 10.0 mi NNW 5.8 mph - N/A   Clear
8:35 PM 30.6 °F 24.7 °F 16.9 °F 57% 30.44 in 10.0 mi NNW 5.8 mph - N/A   Clear
8:55 PM 29.3 °F 21.5 °F 18.3 °F 64% 30.43 in 10.0 mi NNW 8.1 mph - N/A   Clear
9:15 PM 31.1 °F 24.5 °F 17.6 °F 57% 30.45 in 10.0 mi NNW 6.9 mph - N/A   Clear
9:35 PM 32.2 °F 25.0 °F 16.2 °F 52% 30.45 in 10.0 mi North 8.1 mph - N/A   Clear
9:55 PM 32.0 °F 26.4 °F 16.0 °F 52% 30.46 in 10.0 mi North 5.8 mph - N/A   Clear
10:15 PM 30.9 °F 25.2 °F 16.0 °F 54% 30.47 in 10.0 mi NNW 5.8 mph - N/A   Clear
10:35 PM 30.7 °F 24.9 °F 16.3 °F 55% 30.47 in 10.0 mi North 5.8 mph - N/A   Clear
10:55 PM 28.8 °F 22.6 °F 16.7 °F 61% 30.47 in 10.0 mi North 5.8 mph - N/A   Clear
11:15 PM 28.8 °F 25.0 °F 16.7 °F 61% 30.48 in 10.0 mi NNW 3.5 mph - N/A   Clear
11:35 PM 28.8 °F - 17.1 °F 62% 30.48 in 10.0 mi Calm Calm - N/A   Clear
11:55 PM 27.3 °F - 18.0 °F 68% 30.48 in 10.0 mi Calm Calm - N/A   Clear